Location: Seven Kings
(51.5667°N, 0.1000°E)
Time: 01:41:37
(UTC+00:00)

Cosmos 1553 Rocket - Pass Details

Date: 29 October 2020
Orbit: 940 x 1009 km, 82.9° (Epoch: 27 November)

Event Time Altitude Azimuth Distance (km) Brightness Sun altitude
Rises 17:42:30 0° 170° (S) 3,709 7.0 -10.6°
Reaches altitude 10° 17:45:06 10° 166° (SSE) 2,756 6.3 -11.0°
Maximum altitude 17:51:11 52° 92° (E) 1,206 4.1 -12.0°
Drops below altitude 10° 17:57:13 10° 18° (NNE) 2,729 6.1 -12.9°
Sets 17:59:46 0° 13° (NNE) 3,671 6.8 -13.3°
